Temp
-7 -7 -7 -7 -7 -6 -7 -7 -6 -7 -7 -6 -6 -6 -6 -6 -6 -7 -7 -7 -7 -7
-7 -7 -7 -8 -8 -8 -8 -8 -8 -8 -7 -7 -7 -7 -7 -7 -7 -7 -7 -7 -7 -7
-9 -9 -9 -9 -9 -9 -9 -9 -9 -8 -8 -8 -8 -8 -8 -8 -7 -8 -8 -8 -8 -8
-9 -10 -10 -10 -10 -10 -10 -10 -10 -10 -9 -9 -9 -9 -9 -9 -9 -9 -9 -9 -9 -8
-11 -11 -11 -11 -11 -11 -11 -11 -11 -11 -11 -10 -10 -10 -10 -10 -10 -10 -10 -9 -10 -9
-11 -11 -11 -12 -12 -12 -12 -11 -11 -12 -11 -11 -11 -11 -11 -11 -11 -11 -10 -10 -10 -10
-12 -12 -13 -13 -13 -12 -12 -13 -12 -12 -12 -12 -12 -12 -12 -11 -11 -10 -10 -10 -10 -9
-12 -13 -13 -13 -13 -13 -13 -13 -13 -13 -13 -13 -13 -12 -11 -11 -10 -10 -9 -9 -9 -9
-12 -13 -13 -13 -13 -14 -14 -13 -14 -14 -14 -14 -13 -12 -11 -10 -10 -9 -9 -9 -9 -8
-12 -13 -13 -13 -14 -14 -14 -14 -14 -14 -14 -14 -14 -13 -11 -10 -9 -9 -9 -9 -9 -9
-13 -13 -13 -13 -14 -14 -14 -14 -15 -15 -15 -15 -14 -13 -11 -10 -9 -9 -9 -10 -10 -10
-12 -13 -13 -13 -13 -14 -14 -14 -15 -15 -15 -15 -14 -13 -12 -11 -10 -10 -10 -10 -10 -9
-13 -13 -14 -13 -14 -14 -14 -15 -15 -15 -15 -15 -14 -14 -13 -12 -11 -11 -10 -10 -9 -9
-14 -14 -14 -14 -14 -14 -15 -15 -15 -16 -16 -16 -15 -14 -13 -12 -11 -10 -10 -9 -9 -9
Height
887 887 886 886 885 885 885 883 882 881 879 878 875 873 871 870 869 868 866 864 862 860
884 885 884 884 883 883 882 881 880 878 876 874 872 870 868 866 865 864 862 860 857 855
882 883 883 881 880 880 878 877 875 873 872 870 868 866 865 863 861 859 857 856 854 851
881 879 879 878 877 875 874 872 870 868 866 865 863 861 860 858 855 854 851 851 849 845
877 876 874 873 872 870 868 867 865 863 861 860 858 856 855 852 851 848 846 844 843 840
872 871 870 868 866 865 863 861 859 858 856 854 853 851 849 847 844 843 841 839 837 834
868 867 865 863 861 859 857 855 854 852 850 849 847 846 844 842 840 837 834 832 829 826
863 861 859 857 855 853 852 850 848 846 845 843 841 840 838 837 834 831 827 824 822 820
857 856 854 852 850 848 846 844 842 840 838 836 834 833 832 830 826 823 820 817 815 813
851 849 847 845 844 842 840 838 836 833 831 828 826 825 824 822 819 816 813 811 808 804
843 841 839 838 836 835 834 832 830 827 824 821 819 818 817 815 812 808 805 803 800 797
835 833 831 829 829 828 826 824 822 820 817 814 811 811 810 808 805 800 797 795 792 789
826 824 823 821 821 820 818 816 815 813 811 807 804 803 802 801 798 792 789 785 782 779
816 815 814 813 813 811 810 808 806 803 801 798 796 792 792 791 788 785 781 776 771 768
Wind_Speed
10 12 13 14 16 18 20 21 21 20 19 20 18 18 17 18 19 16 18 20 18 19
11 13 15 16 17 18 19 21 19 22 22 22 20 19 18 20 21 21 21 21 21 20
14 15 16 17 18 19 21 21 22 23 23 23 22 20 19 21 22 23 23 20 20 22
15 16 17 19 20 21 21 22 23 23 24 24 23 22 22 23 22 22 22 23 24 26
17 18 20 21 21 20 22 22 23 22 23 24 24 24 24 25 23 25 26 25 24 26
21 21 21 22 22 22 22 22 22 21 24 24 24 24 24 25 25 25 25 25 25 27
22 22 22 23 23 23 22 23 23 23 23 24 24 21 22 22 24 24 25 25 25 27
22 22 23 24 24 23 22 22 23 22 23 25 23 21 20 21 24 25 27 27 27 28
23 23 24 24 24 23 23 23 23 24 26 25 22 21 23 24 27 27 28 28 26 27
25 26 25 23 23 24 24 24 24 25 25 26 27 24 24 24 26 27 26 27 28 29
27 28 27 25 24 24 24 25 24 24 24 26 26 23 23 24 27 28 28 27 29 30
26 27 28 28 26 26 26 26 26 23 24 24 26 24 24 25 27 28 29 28 29 30
29 29 29 27 27 26 27 26 22 25 25 25 30 28 27 27 27 28 27 28 29 29
30 29 30 29 27 29 27 27 32 33 32 31 29 31 26 25 26 26 26 28 29 28
Wind_Direction
326 322 318 316 313 310 310 309 311 311 309 311 311 311 311 308 309 310 304 304 305 304
317 313 310 306 302 301 301 303 302 300 303 305 305 305 306 303 303 302 302 302 302 299
312 309 304 301 300 299 298 298 298 300 302 302 302 304 303 301 299 298 296 295 293 295
304 304 303 300 298 298 297 297 297 299 299 300 301 302 301 298 297 295 294 292 290 291
301 303 301 299 298 298 297 296 296 296 296 296 298 298 298 297 291 290 290 291 288 286
299 298 297 297 299 298 298 297 296 292 292 295 297 298 295 294 293 289 285 284 283 283
296 297 298 298 297 298 299 297 297 296 295 294 295 290 288 283 281 283 284 283 279 281
294 295 297 298 298 296 295 292 295 293 290 292 291 288 285 283 281 281 282 282 281 280
288 292 293 295 296 294 294 295 297 295 294 292 287 284 284 283 282 280 279 281 283 283
282 284 287 291 290 289 292 294 292 292 293 289 291 288 286 283 280 280 281 282 284 285
277 279 283 285 285 287 290 291 289 287 288 286 287 287 286 285 285 283 281 281 282 280
279 283 284 279 280 285 284 290 290 287 287 284 283 287 286 285 285 283 281 280 278 277
283 284 284 281 278 286 282 283 285 286 285 280 283 284 283 282 279 275 277 280 280 279
280 282 283 282 278 286 279 282 288 290 288 286 286 289 284 279 274 274 278 276 278 280